Regional Weather Roundup
Issued by NWS Bismarck, ND

Home | Current Version | Previous Version | Text Only | Print | Product List | Glossary On
Versions: 1 2 3 4 5 6 7 8 9 10 11 12 13 14 15 16 17 18 19 20 21 22 23 24 25 26 27 28 29 30 31 32 33 34 35 36 37 38 39 40 41 42 43 44 45 46 47 48 49 50
000
ASUS43 KBIS 031302
RWRBIS

NWR BROADCAST TEXT
NATIONAL WEATHER SERVICE BISMARCK ND
800 AM CDT THU SEP 03 2015

NOTE: "FAIR" INDICATES FEW OR NO CLOUDS BELOW 12,000 FEET WITH NO
SIGNIFICANT WEATHER AND/OR OBSTRUCTIONS TO VISIBILITY.


CITY           SKY/WX    TMP DP  RH WIND       PRES   REMARKS
WILLISTON      PTCLDY    64  50  60 N10       29.69R
MINOT          CLOUDY    69  68  96 CALM      29.68R FOG
MINOT AFB      FOG       70  70 100 S6        29.67R VSB 1/4
BISMARCK       CLEAR     67  66  97 E9        29.69R
DICKINSON      CLEAR     63  54  72 S7        29.67R
GARRISON         N/A     69  30  23 SE6       29.67R
HETTINGER ARPT CLEAR     54  51  90 CALM      29.72R
JAMESTOWN      CLOUDY    73  70  90 SE14      29.74S FOG
HAZEN          FOG       64  64 100 E3        29.67S VSB 1/4
OAKES            N/A     70  70 100 E9        29.77S FOG
STANLEY        FAIR      66  66 100 E10       29.69F FOG
$$

CITY           SKY/WX    TMP DP  RH WIND       PRES   REMARKS
GRAND FORKS    CLOUDY    71  69  93 SE17      29.78R FOG
GRAND FORKS AF CLOUDY    71  71  99 SE14      29.78R FOG
DEVILS LAKE    CLOUDY    72  64  78 SE15G21   29.72S
FARGO          CLOUDY    73  68  84 SE13      29.79S
CAVALIER       FOG       68  68 100 SE8       29.77S VSB 1/2
GRAFTON        FOG       70  70 100 SE14      29.78S VSB 1/2
GWINNER        CLOUDY    72  72 100 SE14      29.78S
LANGDON        FOG       70  70 100 SE12G17   29.77R VSB 1/4
$$

CITY           SKY/WX    TMP DP  RH WIND       PRES   REMARKS
ABERDEEN       SUNNY     71  68  90 S12       29.76R
MOBRIDGE       CLEAR     69  64  84 SE9       29.69S
BUFFALO          N/A     67  45  45 SE5       29.68R
RAPID CITY     CLEAR     62  51  67 CALM      29.79S
GLASGOW        PTCLDY    65  35  33 N10G17    29.76R
SIDNEY         CLEAR     66  45  45 N9          N/A
WOLF POINT     PTCLDY    68  40  35 E10       29.71R
GLENDIVE       CLEAR     64  43  45 N10       29.72R
MILES CITY     PTCLDY    62  42  47 NW7       29.74R
BAKER          PTCLDY    59  47  64 NW3       29.73R
$$

CITY           SKY/WX    TMP DP  RH WIND       PRES   REMARKS
BILLINGS       LGT RAIN  62  35  36 N13       29.90F
GREAT FALLS    MOCLDY    53  36  52 N5        29.95R
$$



USA.gov is the U.S. government's official web portal to all federal, state and local government web resources and services.